Location: Columbia
(38.9520°N, 92.3340°W)
Time: 09:30:42
(UTC-05:00)

Cosmos 1633 - Visible Passes

Search period start: 28 July 2016 00:00
Search period end: 07 August 2016 00:00
Orbit: 475 x 493 km, 82.5° (Epoch: 27 July)

Date Brightness Start Highest point End Pass type
(mag) Time Alt. Az. Time Alt. Az. Time Alt. Az.
28 Jul 5.0 23:34:25 17° NNE 23:34:25 17° NNE 23:35:29 10° NNE visible
29 Jul 5.1 23:09:39 14° NE 23:09:39 14° NE 23:10:19 10° NNE visible
30 Jul 5.6 00:44:00 13° NW 00:44:00 13° NW 00:44:46 10° NNW visible
31 Jul 5.3 00:19:12 18° NNW 00:19:12 18° NNW 00:20:32 10° NNW visible
31 Jul 5.0 23:54:23 23° NNW 23:54:23 23° NNW 23:56:00 10° N visible
01 Aug 4.6 23:29:33 26° N 23:29:33 26° N 23:31:18 10° N visible
02 Aug 4.4 23:04:42 25° NNE 23:04:42 25° NNE 23:06:25 10° NNE visible
03 Aug 4.5 22:39:50 21° NE 22:39:50 21° NE 22:41:22 10° NNE visible
04 Aug 5.7 00:14:10 12° NW 00:14:10 12° NW 00:14:56 10° NW visible
04 Aug 4.7 22:14:56 16° NE 22:14:56 16° NE 22:16:06 10° NE visible
04 Aug 5.2 23:49:16 18° NW 23:49:16 18° NW 23:51:01 10° NNW visible
05 Aug 5.0 21:50:00 11° ENE 21:50:00 11° ENE 21:50:20 10° ENE visible
05 Aug 4.6 23:24:20 27° NW 23:24:20 27° NW 23:26:38 10° NNW visible
06 Aug 3.9 22:59:22 40° NNW 22:59:22 40° NNW 23:02:01 10° N visible
